Location: Pedholt
(56.0260°N, 10.2097°E)
Time: 06:01:20
(UTC+00:00)

Vanguard 3 - Pass Details

Date: 02 August 2021
Orbit: 510 x 3260 km, 33.3° (Epoch: 19 September)

Event Time Altitude Azimuth Distance (km) Brightness Sun altitude
Rises 21:12:13 0° 262° (W) 6,670 12.2 -11.3°
Reaches altitude 10° 21:17:26 10° 252° (WSW) 5,920 11.7 -11.7°
Maximum altitude 21:31:34 27° 205° (SSW) 4,883 10.8 -12.6°
Enters shadow 21:43:01 15° 163° (SSE) 5,517 10.7 -13.4°
